Stations météo

réclame
Mon MeteoGroup
Capo Bellavista, Italie (16550): Température de l'air & dewpoint: 07.12.2017 00:00:00 - 13.12.2017 00:00:00 (CET)Capo Bellavista, Italie (16550): Vitesse du vent: 07.12.2017 00:00:00 - 13.12.2017 00:00:00 (CET)Capo Bellavista, Italie (16550): Direction du vent: 07.12.2017 00:00:00 - 13.12.2017 00:00:00 (CET)Capo Bellavista, Italie (16550): reduced air pressure: 07.12.2017 00:00:00 - 13.12.2017 00:00:00 (CET)Capo Bellavista, Italie (16550): visibility: 07.12.2017 00:00:00 - 13.12.2017 00:00:00 (CET)Capo Bellavista, Italie (16550): Ensoleillement: 07.12.2017 00:00:00 - 13.12.2017 00:00:00 (CET)
Date & Time tt [°C] td [°C] ff [km/h] ff [knt] dd ppp [hPa] vv [km] sd [min]
13.12.2017 00:00:00 - - - - - - - -
12.12.2017 23:00:00 14,6 10,1 18 10 SSW 1016,6 20 -
12.12.2017 22:00:00 15,2 8,0 16 9 W 1016,0 20 -
12.12.2017 21:00:00 15,2 8,8 13 7 W 1015,7 20 -
12.12.2017 20:00:00 15,8 9,2 16 9 WSW 1014,9 20 -
12.12.2017 19:00:00 15,8 8,7 16 9 WSW 1014,2 20 -
12.12.2017 18:00:00 16,0 8,6 18 10 W 1013,4 20 -
12.12.2017 17:00:00 16,4 10,2 18 10 W 1012,7 25 0
12.12.2017 16:00:00 16,8 13,9 15 8 SW 1012,3 25 0
12.12.2017 15:00:00 18,2 9,6 29 16 SW 1011,7 25 12
12.12.2017 14:00:00 17,8 11,9 18 10 SSW 1011,6 9 -
12.12.2017 13:00:00 18,0 8,1 22 12 SW 1011,6 9 6
12.12.2017 12:00:00 17,8 10,7 24 13 SW 1011,7 9 54
12.12.2017 11:00:00 17,0 10,6 26 14 SW 1011,7 9 12
12.12.2017 10:00:00 17,0 12,4 18 10 SSW 1010,9 9 0
12.12.2017 09:00:00 17,4 7,7 11 6 SW 1010,0 10 0
12.12.2017 08:00:00 17,6 6,5 15 8 WNW 1009,4 15 0
12.12.2017 07:00:00 16,0 8,3 24 13 SW 1006,8 20 -
12.12.2017 06:00:00 15,8 7,8 24 13 SSW 1006,8 20 -
12.12.2017 05:00:00 17,4 8,3 18 10 W 1006,5 20 -
12.12.2017 04:00:00 15,8 10,8 22 12 SSW 1005,9 20 -
12.12.2017 03:00:00 16,0 11,6 24 13 SW 1005,8 20 -
12.12.2017 02:00:00 16,0 11,6 24 13 SW 1005,7 20 -
12.12.2017 01:00:00 16,0 11,6 24 13 SW 1005,5 20 -
12.12.2017 00:00:00 15,8 11,0 24 13 SSW 1005,4 20 -
11.12.2017 23:00:00 16,0 11,6 22 12 SSW 1005,3 20 -
11.12.2017 22:00:00 16,0 13,5 24 13 SSW 1005,0 20 -
11.12.2017 21:00:00 15,8 12,2 28 15 SW 1004,6 20 -
11.12.2017 20:00:00 15,8 14,2 37 20 SSW 1003,7 20 -
11.12.2017 19:00:00 16,0 11,6 34 18 SW 1003,5 20 -
11.12.2017 18:00:00 15,6 11,4 34 18 SW 1003,2 20 -
11.12.2017 17:00:00 15,8 14,0 37 20 SSW 1002,9 25 0
11.12.2017 16:00:00 15,8 14,0 42 23 SSW 1003,0 30 18
11.12.2017 15:00:00 16,2 14,7 42 23 SSW 1002,6 30 0
11.12.2017 14:00:00 16,2 14,2 44 24 SSW 1002,6 30 0
11.12.2017 13:00:00 16,4 15,1 52 28 S 1002,7 30 0
11.12.2017 12:00:00 16,4 12,5 48 26 SSW 1003,0 30 0
11.12.2017 11:00:00 16,6 12,4 52 28 SSW 1003,7 30 0
11.12.2017 10:00:00 15,6 9,9 44 24 S 1004,6 25 0
11.12.2017 09:00:00 15,0 10,6 50 27 S 1004,6 25 6
11.12.2017 08:00:00 14,8 11,8 42 23 S 1004,4 25 0
11.12.2017 07:00:00 14,8 11,8 41 22 S 1005,6 25 -
11.12.2017 06:00:00 15,0 12,4 44 24 S 1005,7 25 -
11.12.2017 05:00:00 15,0 12,0 41 22 S 1006,7 25 -
11.12.2017 04:00:00 15,0 11,7 41 22 S 1007,7 25 -
11.12.2017 03:00:00 15,0 10,2 26 14 SSW 1007,8 25 -
11.12.2017 02:00:00 15,0 9,8 34 18 SW 1008,6 25 -
11.12.2017 01:00:00 15,0 10,6 34 18 SSW 1008,7 25 -
11.12.2017 00:00:00 14,8 11,4 35 19 SSW 1009,3 25 -
10.12.2017 23:00:00 14,2 10,8 37 20 SSW 1009,9 25 -
10.12.2017 22:00:00 13,8 11,4 31 17 SSW 1010,2 25 -
10.12.2017 21:00:00 13,0 11,3 39 21 SSW 1010,9 25 -
10.12.2017 20:00:00 13,0 11,7 35 19 SSW 1011,9 25 -
10.12.2017 19:00:00 12,0 10,6 31 17 SSW 1012,0 25 -
10.12.2017 18:00:00 11,6 9,5 39 21 SSW 1012,2 25 -
10.12.2017 17:00:00 11,0 9,2 29 16 SW 1013,4 25 0
10.12.2017 16:00:00 11,0 7,7 28 15 SW 1014,6 25 0
10.12.2017 15:00:00 11,0 6,2 29 16 SW 1015,1 25 12
10.12.2017 14:00:00 11,2 4,9 37 20 SW 1016,1 25 18
10.12.2017 13:00:00 12,0 4,5 39 21 SW 1016,7 30 24
10.12.2017 12:00:00 12,0 5,0 21 11 SW 1017,6 30 60
10.12.2017 11:00:00 10,6 5,1 9 5 SSE 1018,2 30 48
10.12.2017 10:00:00 8,4 4,3 21 11 SW 1018,3 30 24
10.12.2017 09:00:00 7,8 2,7 9 5 SW 1018,7 30 36
10.12.2017 08:00:00 6,4 -2,0 5 3 SW 1018,9 30 -
10.12.2017 07:00:00 5,0 -2,1 9 5 NW 1019,0 20 -
10.12.2017 06:00:00 5,0 -5,1 15 8 NW 1018,6 20 -
10.12.2017 05:00:00 5,0 -2,6 16 9 WNW 1019,0 20 -
10.12.2017 04:00:00 5,0 -3,0 11 6 W 1020,0 20 -
10.12.2017 03:00:00 6,0 -2,3 13 7 SW 1020,3 20 -
10.12.2017 02:00:00 6,0 -3,6 11 6 WSW 1020,0 20 -
10.12.2017 01:00:00 5,6 -3,2 15 8 WNW 1020,5 20 -
10.12.2017 00:00:00 6,0 -2,9 21 11 NW 1020,4 20 -
09.12.2017 23:00:00 6,0 -4,2 22 12 NW 1020,4 20 -
09.12.2017 22:00:00 6,6 -4,5 13 7 WNW 1019,9 20 -
09.12.2017 21:00:00 6,8 -5,9 13 7 WNW 1019,3 20 -
09.12.2017 20:00:00 7,2 -5,5 15 8 NNW 1018,5 20 -
09.12.2017 19:00:00 7,8 -5,6 24 13 NW 1017,9 20 -
09.12.2017 18:00:00 8,6 -5,3 41 22 NNW 1016,4 20 -
09.12.2017 17:00:00 9,0 -9,0 26 14 WNW 1015,6 30 -
09.12.2017 16:00:00 12,0 -7,4 11 6 WNW 1014,8 30 60
09.12.2017 15:00:00 11,0 -9,3 28 15 NW 1014,3 30 60
09.12.2017 14:00:00 11,0 -8,3 13 7 WNW 1014,4 30 60
09.12.2017 13:00:00 12,0 -7,9 22 12 WNW 1014,3 30 60
09.12.2017 12:00:00 12,6 -4,5 16 9 WNW 1014,7 30 60
09.12.2017 11:00:00 11,0 -4,6 24 13 NW 1015,1 30 54
09.12.2017 10:00:00 11,0 -3,1 24 13 WNW 1014,8 30 18
09.12.2017 09:00:00 10,2 -2,3 22 12 NW 1013,1 30 60
09.12.2017 08:00:00 10,0 -0,8 15 8 NNW 1013,1 30 12
09.12.2017 07:00:00 9,8 -0,5 15 8 NW 1013,2 25 0
09.12.2017 06:00:00 10,2 -1,1 70 38 NW 1012,0 20 -
09.12.2017 05:00:00 10,4 -0,2 31 17 WNW 1012,6 20 -
09.12.2017 04:00:00 11,0 0,1 54 29 NW 1012,6 20 -
09.12.2017 03:00:00 12,0 2,6 41 22 WNW 1013,1 20 -
09.12.2017 02:00:00 13,6 7,8 21 11 NW 1013,7 20 -
09.12.2017 01:00:00 13,4 7,5 22 12 W 1014,5 20 -
09.12.2017 00:00:00 - - - - - - - -
08.12.2017 23:00:00 - - - - - - - -
08.12.2017 22:00:00 13,8 9,6 28 15 SSW 1015,5 20 -
08.12.2017 21:00:00 14,0 7,4 21 11 SW 1016,9 20 -
08.12.2017 20:00:00 13,6 8,2 22 12 SW 1016,9 20 -
08.12.2017 19:00:00 13,8 7,2 26 14 SW 1017,0 20 -
08.12.2017 18:00:00 13,6 4,7 18 10 WSW 1018,0 20 -
08.12.2017 17:00:00 13,6 3,7 21 11 W 1018,4 30 0
08.12.2017 16:00:00 14,0 2,2 26 14 W 1018,9 30 0
08.12.2017 15:00:00 14,2 1,9 26 14 W 1019,0 30 18
08.12.2017 14:00:00 15,6 1,2 16 9 W 1019,9 30 36
08.12.2017 13:00:00 14,0 2,1 16 9 W 1021,6 30 42
08.12.2017 12:00:00 14,6 5,9 11 6 S 1022,6 30 60
08.12.2017 11:00:00 12,2 4,7 18 10 SW 1023,9 30 60
08.12.2017 10:00:00 11,2 4,4 4 2 WSW 1024,1 30 60
08.12.2017 09:00:00 10,2 3,5 8 4 SW 1025,4 20 -
08.12.2017 08:00:00 9,8 2,9 11 6 W 1026,0 20 -
08.12.2017 07:00:00 8,2 2,2 18 10 WNW 1026,1 20 0
08.12.2017 06:00:00 8,2 3,5 18 10 WNW 1026,4 20 -
08.12.2017 05:00:00 8,2 3,1 16 9 WNW 1026,9 20 -
08.12.2017 04:00:00 10,0 4,8 18 10 WNW 1026,9 20 -
08.12.2017 03:00:00 9,8 4,4 15 8 WSW 1027,4 20 -
08.12.2017 02:00:00 10,0 4,8 15 8 WSW 1027,9 20 -
08.12.2017 01:00:00 10,0 5,8 16 9 W 1028,3 20 -
08.12.2017 00:00:00 - - - - - - - -
07.12.2017 23:00:00 10,0 3,3 11 6 WSW 1029,9 20 -
07.12.2017 22:00:00 10,0 4,0 11 6 W 1029,7 20 -
07.12.2017 21:00:00 10,6 4,3 18 10 WNW 1029,9 20 -
07.12.2017 20:00:00 10,0 5,0 21 11 WNW 1029,8 20 -
07.12.2017 19:00:00 11,0 6,9 16 9 WNW 1030,1 20 0
07.12.2017 18:00:00 12,0 7,7 15 8 WNW 1030,3 20 -
07.12.2017 17:00:00 13,2 7,4 9 5 N 1030,2 20 -
07.12.2017 16:00:00 15,4 8,2 5 3 ESE 1030,7 20 -
07.12.2017 15:00:00 15,8 8,8 5 3 SSE 1030,7 20 -
07.12.2017 14:00:00 15,6 8,1 11 6 SE 1030,9 20 -
07.12.2017 13:00:00 16,0 7,2 8 4 SE 1031,5 20 60
07.12.2017 12:00:00 15,0 6,3 2 1 S 1032,3 20 -
07.12.2017 11:00:00 11,8 6,3 0 0 N 1033,2 20 -
07.12.2017 10:00:00 10,2 5,0 9 5 WNW 1033,4 20 60
07.12.2017 09:00:00 8,0 3,7 21 11 NW 1032,5 30 60
07.12.2017 08:00:00 7,8 3,1 21 11 NW 1032,5 30 60
07.12.2017 07:00:00 8,4 3,1 22 12 NW 1032,5 20 -
07.12.2017 06:00:00 7,0 -0,5 15 8 NW 1033,5 20 -
07.12.2017 05:00:00 7,2 -2,0 16 9 WNW 1033,5 20 -
07.12.2017 04:00:00 7,4 -0,1 15 8 NW 1033,5 20 -
07.12.2017 03:00:00 7,8 1,0 18 10 W 1033,6 20 -
07.12.2017 02:00:00 8,0 0,7 15 8 NW 1033,4 20 -
07.12.2017 01:00:00 8,2 1,4 16 9 WNW 1033,5 20 -
07.12.2017 00:00:00 8,4 3,0 15 8 NW 1033,4 20 -

tt = Température de l'air
td = dewpoint
ff = Vitesse du vent
dd = Direction du vent
ppp = reduced air pressure
vv = visibility
sd = Ensoleillement

stations d'obs. à proximité